| time (UTC) | temp F | wind direction | speed MPH | gust MPH | rain 1hr in | rain 24hr in | rain mn in | humidity % | barometer mb |
| 20260507153042 | 63 | 241 | 7.0 | 17.0 | 0.00 | 0.06 | 0.00 | 72 | 1014.5 |
| 20260507151543 | 63 | 254 | 8.0 | 16.0 | 0.00 | 0.06 | 0.00 | 68 | 1014.2 |
| 20260507150038 | 64 | 209 | 5.0 | 16.0 | 0.00 | 0.06 | 0.00 | 60 | 1013.8 |
| 20260507144538 | 64 | 219 | 6.0 | 17.0 | 0.00 | 0.06 | 0.00 | 62 | 1013.7 |
| 20260507143044 | 63 | 188 | 11.0 | 17.0 | 0.00 | 0.06 | 0.00 | 69 | 1013.7 |
| 20260507141543 | 64 | 203 | 9.0 | 15.0 | 0.00 | 0.06 | 0.00 | 72 | 1013.7 |
| 20260507140056 | 64 | 202 | 10.0 | 15.0 | 0.00 | 0.06 | 0.00 | 74 | 1013.9 |
| 20260507134541 | 65 | 214 | 8.0 | 12.0 | 0.00 | 0.06 | 0.00 | 77 | 1014.0 |
| 20260507133040 | 65 | 239 | 8.0 | 13.0 | 0.00 | 0.06 | 0.00 | 77 | 1013.9 |
| 20260507131547 | 64 | 235 | 8.0 | 14.0 | 0.00 | 0.06 | 0.00 | 78 | 1013.9 |
| 20260507130043 | 65 | 245 | 10.0 | 15.0 | 0.00 | 0.06 | 0.00 | 78 | 1014.1 |
| 20260507124544 | 65 | 243 | 8.0 | 15.0 | 0.00 | 0.07 | 0.00 | 78 | 1014.2 |
| 20260507123043 | 63 | 246 | 10.0 | 17.0 | 0.00 | 0.07 | 0.00 | 77 | 1014.0 |
| 20260507121540 | 64 | 243 | 10.0 | 15.0 | 0.00 | 0.07 | 0.00 | 77 | 1014.1 |
| 20260507120039 | 64 | 231 | 9.0 | 16.0 | 0.00 | 0.07 | 0.00 | 76 | 1014.1 |
| 20260507114538 | 64 | 246 | 10.0 | 16.0 | 0.00 | 0.07 | 0.00 | 76 | 1014.2 |
| 20260507113044 | 64 | 209 | 8.0 | 16.0 | 0.00 | 0.07 | 0.00 | 76 | 1014.3 |
| 20260507111547 | 63 | 219 | 7.0 | 16.0 | 0.00 | 0.07 | 0.00 | 77 | 1014.3 |
| 20260507110049 | 64 | 257 | 9.0 | 16.0 | 0.00 | 0.07 | 0.00 | 76 | 1014.5 |
| 20260507104541 | 62 | 205 | 8.0 | 17.0 | 0.00 | 0.10 | 0.00 | 77 | 1014.5 |
| 20260507103039 | 63 | 189 | 8.0 | 15.0 | 0.00 | 0.10 | 0.00 | 77 | 1014.7 |
| 20260507101600 | 62 | 206 | 9.0 | 19.0 | 0.00 | 0.10 | 0.00 | 78 | 1014.7 |
| 20260507100045 | 63 | 226 | 12.0 | 20.0 | 0.00 | 0.10 | 0.00 | 78 | 1014.7 |
| 20260507094554 | 63 | 216 | 8.0 | 13.0 | 0.00 | 0.22 | 0.00 | 79 | 1014.5 |
| 20260507093042 | 63 | 233 | 9.0 | 16.0 | 0.00 | 0.22 | 0.00 | 81 | 1014.4 |
| 20260507091553 | 62 | 247 | 10.0 | 17.0 | 0.00 | 0.22 | 0.00 | 81 | 1014.4 |
| 20260507090051 | 62 | 280 | 8.0 | 18.0 | 0.00 | 0.22 | 0.00 | 81 | 1014.3 |
| 20260507084538 | 61 | 247 | 10.0 | 15.0 | 0.00 | 0.38 | 0.00 | 82 | 1014.3 |
| 20260507083045 | 62 | 218 | 4.0 | 15.0 | 0.00 | 0.38 | 0.00 | 83 | 1014.3 |
| 20260507081553 | 61 | 168 | 4.0 | 16.0 | 0.00 | 0.38 | 0.00 | 86 | 1014.1 |
| 20260507080042 | 60 | 193 | 5.0 | 15.0 | 0.00 | 0.38 | 0.00 | 86 | 1014.0 |
| 20260507074541 | 60 | 181 | 9.0 | 15.0 | 0.00 | 0.51 | 0.00 | 86 | 1013.8 |
| 20260507073054 | 60 | 175 | 6.0 | 15.0 | 0.00 | 0.51 | 0.00 | 86 | 1013.8 |
| 20260507071538 | 60 | 0 | 9.0 | 20.0 | 0.00 | 0.51 | 0.00 | 88 | 1013.7 |
| 20260507070126 | 60 | 173 | 6.0 | 11.0 | 0.00 | 0.51 | 0.00 | 88 | 1013.5 |
| 20260507064550 | 60 | 210 | 4.0 | 12.0 | 0.00 | 0.62 | 0.00 | 89 | 1013.4 |
| 20260507063044 | 59 | 190 | 5.0 | 12.0 | 0.00 | 0.62 | 0.00 | 91 | 1013.2 |
| 20260507061543 | 58 | 179 | 3.0 | 12.0 | 0.00 | 0.62 | 0.00 | 91 | 1013.3 |
| 20260507060043 | 58 | 182 | 4.0 | 8.0 | 0.00 | 0.62 | 0.00 | 92 | 1013.2 |
| 20260507054546 | 58 | 204 | 3.0 | 9.0 | 0.00 | 0.62 | 0.00 | 92 | 1013.2 |
| 20260507053042 | 57 | 172 | 5.0 | 9.0 | 0.00 | 0.62 | 0.00 | 93 | 1012.9 |
| 20260507051539 | 57 | 145 | 1.0 | 9.0 | 0.00 | 0.62 | 0.00 | 93 | 1012.9 |
| 20260507050044 | 57 | 158 | 4.0 | 10.0 | 0.00 | 0.62 | 0.00 | 93 | 1012.7 |
| 20260507044545 | 57 | 146 | 5.0 | 8.0 | 0.00 | 0.62 | 0.00 | 93 | 1012.5 |
| 20260507043041 | 57 | 167 | 5.0 | 10.0 | 0.00 | 0.62 | 0.00 | 93 | 1012.3 |
| 20260507041538 | 57 | 166 | 5.0 | 9.0 | 0.00 | 0.62 | 0.00 | 93 | 1012.3 |
| 20260507040049 | 56 | 175 | 5.0 | 7.0 | 0.00 | 0.62 | 0.00 | 93 | 1012.1 |
| 20260507034547 | 56 | 137 | 4.0 | 9.0 | 0.00 | 0.62 | 0.00 | 93 | 1012.0 |
| 20260507033044 | 57 | 161 | 5.0 | 12.0 | 0.00 | 0.62 | 0.00 | 93 | 1011.9 |
| 20260507031542 | 57 | 183 | 4.0 | 9.0 | 0.00 | 0.62 | 0.00 | 93 | 1012.1 |
| 20260507030047 | 57 | 209 | 3.0 | 9.0 | 0.00 | 0.62 | 0.00 | 93 | 1012.1 |
| 20260507024545 | 57 | 181 | 3.0 | 10.0 | 0.00 | 0.62 | 0.00 | 93 | 1012.0 |
| 20260507023037 | 57 | 183 | 1.0 | 9.0 | 0.00 | 0.62 | 0.00 | 93 | 1012.0 |
| 20260507021619 | 57 | 204 | 2.0 | 10.0 | 0.00 | 0.62 | 0.00 | 93 | 1012.1 |
| 20260507020040 | 57 | 195 | 2.0 | 12.0 | 0.00 | 0.62 | 0.00 | 92 | 1012.0 |
| 20260507014552 | 57 | 168 | 3.0 | 12.0 | 0.00 | 0.62 | 0.00 | 92 | 1012.1 |
| 20260507013047 | 57 | 330 | 3.0 | 14.0 | 0.00 | 0.62 | 0.00 | 92 | 1012.0 |
| 20260507011545 | 57 | 247 | 4.0 | 13.0 | 0.00 | 0.62 | 0.00 | 92 | 1012.0 |
| 20260507010050 | 57 | 154 | 3.0 | 13.0 | 0.00 | 0.62 | 0.00 | 92 | 1012.1 |
| 20260507004543 | 57 | 268 | 3.0 | 16.0 | 0.00 | 0.62 | 0.00 | 92 | 1011.9 |
| 20260507003039 | 56 | 165 | 3.0 | 11.0 | 0.00 | 0.62 | 0.00 | 92 | 1012.1 |
| 20260507001550 | 57 | 150 | 3.0 | 11.0 | 0.00 | 0.62 | 0.00 | 91 | 1011.9 |
| 20260507000045 | 56 | 146 | 5.0 | 13.0 | 0.00 | 0.62 | 0.00 | 92 | 1012.1 |
| 20260506234544 | 56 | 168 | 7.0 | 15.0 | 0.00 | 0.62 | 0.00 | 91 | 1012.3 |
| 20260506233044 | 56 | 142 | 7.0 | 14.0 | 0.00 | 0.62 | 0.00 | 90 | 1012.4 |
| 20260506231542 | 56 | 166 | 7.0 | 14.0 | 0.00 | 0.62 | 0.00 | 91 | 1012.5 |
| 20260506230040 | 56 | 207 | 9.0 | 14.0 | 0.00 | 0.62 | 0.00 | 91 | 1012.5 |
| 20260506224538 | 56 | 187 | 6.0 | 10.0 | 0.00 | 0.62 | 0.00 | 91 | 1012.6 |
| 20260506223046 | 56 | 145 | 4.0 | 9.0 | 0.00 | 0.62 | 0.00 | 91 | 1012.8 |
| 20260506221545 | 56 | 149 | 3.0 | 8.0 | 0.00 | 0.62 | 0.00 | 91 | 1012.6 |
| 20260506220044 | 56 | 139 | 4.0 | 9.0 | 0.00 | 0.62 | 0.00 | 91 | 1012.4 |
| 20260506214545 | 55 | 168 | 6.0 | 12.0 | 0.00 | 0.62 | 0.62 | 90 | 1012.4 |
| 20260506213040 | 55 | 208 | 7.0 | 12.0 | 0.00 | 0.62 | 0.62 | 90 | 1012.1 |
| 20260506211538 | 55 | 162 | 6.0 | 10.0 | 0.00 | 0.62 | 0.62 | 90 | 1012.3 |
| 20260506210050 | 55 | 222 | 6.0 | 11.0 | 0.00 | 0.62 | 0.62 | 91 | 1012.2 |
| 20260506204544 | 56 | 153 | 5.0 | 13.0 | 0.00 | 0.62 | 0.62 | 91 | 1012.3 |
| 20260506203050 | 56 | 170 | 5.0 | 11.0 | 0.00 | 0.62 | 0.62 | 91 | 1012.2 |
| 20260506201600 | 57 | 203 | 6.0 | 18.0 | 0.00 | 0.62 | 0.62 | 91 | 1012.1 |
| 20260506200048 | 57 | 164 | 6.0 | 18.0 | 0.00 | 0.62 | 0.62 | 91 | 1012.1 |
| 20260506194548 | 56 | 185 | 6.0 | 14.0 | 0.00 | 0.62 | 0.62 | 92 | 1012.0 |
| 20260506193050 | 57 | 190 | 4.0 | 20.0 | 0.00 | 0.62 | 0.62 | 92 | 1011.8 |
| 20260506191544 | 57 | 191 | 7.0 | 17.0 | 0.00 | 0.62 | 0.62 | 92 | 1011.5 |
| 20260506190043 | 58 | 157 | 7.0 | 21.0 | 0.00 | 0.62 | 0.62 | 92 | 1011.2 |
| 20260506184549 | 58 | 137 | 7.0 | 15.0 | 0.00 | 0.62 | 0.62 | 92 | 1011.0 |
| 20260506183040 | 58 | 189 | 4.0 | 17.0 | 0.01 | 0.62 | 0.62 | 92 | 1011.1 |
| 20260506181540 | 58 | 183 | 4.0 | 15.0 | 0.02 | 0.62 | 0.62 | 92 | 1011.2 |
| 20260506180045 | 58 | 177 | 5.0 | 14.0 | 0.03 | 0.62 | 0.62 | 92 | 1011.1 |
| 20260506174542 | 58 | 123 | 5.0 | 12.0 | 0.05 | 0.62 | 0.62 | 92 | 1011.0 |
| 20260506173059 | 59 | 210 | 5.0 | 14.0 | 0.04 | 0.61 | 0.61 | 91 | 1010.8 |
| 20260506171551 | 59 | 148 | 6.0 | 22.0 | 0.03 | 0.60 | 0.60 | 91 | 1011.0 |
| 20260506170040 | 59 | 237 | 14.0 | 23.0 | 0.01 | 0.58 | 0.58 | 89 | 1010.6 |
| 20260506164544 | 60 | 155 | 9.0 | 20.0 | 0.00 | 0.56 | 0.56 | 88 | 1009.7 |
| 20260506163059 | 61 | 176 | 5.0 | 18.0 | 0.00 | 0.56 | 0.56 | 87 | 1010.4 |
| 20260506161545 | 61 | 145 | 7.0 | 14.0 | 0.00 | 0.56 | 0.56 | 87 | 1010.6 |
| 20260506160043 | 62 | 236 | 5.0 | 14.0 | 0.00 | 0.56 | 0.56 | 87 | 1010.6 |
| 20260506154550 | 63 | 184 | 8.0 | 20.0 | 0.00 | 0.56 | 0.56 | 86 | 1010.6 |